Location: Home
(42.5358°N, 72.7383°W)
Time: 14:27:38
(UTC-05:00)

Explorer 11/Cluster Stage 4 - Pass Details

Date: 21 December 2025
Orbit: 463 x 1179 km, 28.8° (Epoch: 21 January)

Event Time Altitude Azimuth Distance (km) Brightness Sun altitude
Rises 16:34:37 0° 243° (WSW) 3,907 13.5 -3.0°
Reaches altitude 10° 16:37:44 10° 233° (SW) 3,016 11.5 -3.5°
Maximum altitude 16:44:01 28° 178° (S) 2,026 9.0 -4.5°
Drops below altitude 10° 16:50:24 10° 122° (ESE) 3,071 9.3 -5.6°
Sets 16:53:37 0° 112° (ESE) 3,988 9.8 -6.1°
